Other Public Products
Issued by NWS Grand Forks, ND

Home | Current Version | Previous Version | Graphics & Text | Print | Product List | Glossary On
Versions: 1 2 3 4 5 6 7 8 9 10 11 12 13 14 15 16 17 18 19 20 21 22 23 24 25 26 27 28 29 30 31 32 33 34 35 36 37 38 39 40 41 42 43 44 45 46 47 48 49 50
000
FPUS83 KFGF 242131
OPUFGF
PRAIRIE TO PINES WEATHER ROUNDUP
NATIONAL WEATHER SERVICE EASTERN NORTH DAKOTA/GRAND FORKS ND
400 PM CDT THU JUL 24 2014

 **SATELLITE DATA USED TO AUGMENT SKY COVER AT AUTOMATED STATIONS**
 *****  WEATHER ACROSS EASTERN NORTH DAKOTA  *****

CITY           SKY/WX    TMP DP  RH WIND       PRES   REMARKS
GRAND FORKS    MOSUNNY   76  58  53 S13G23    29.89R
GRAND FORKS AF SUNNY     77  61  58 S15       29.90R
GRAND CITY NWS   N/A     77 N/A N/A S22         N/A
BUXTON           N/A     75  63  67 SE17        N/A
DEVILS LAKE    SUNNY     75  61  60 SE17      29.84F
FARGO          PTSUNNY   75  62  64 S10G23    29.88F
WAHPETON ARPT  MOCLDY    73  59  60 S20G28    29.88S
$$

 *****  WEATHER ACROSS CENTRAL AND WESTERN NORTH DAKOTA  *****

CITY           SKY/WX    TMP DP  RH WIND       PRES   REMARKS
JAMESTOWN      SUNNY     78  63  59 S22G30    29.83F
BISMARCK       CLOUDY    79  64  60 SE17      29.79F
MINOT          PTSUNNY   76  63  64 SW15G22   29.88R
MINOT AFB      PTSUNNY   73  68  83 SE20G26   29.74F
GARRISON         N/A     72  65  78 W15       29.89R
WILLISTON      MOSUNNY   83  63  50 S8        29.71R
DICKINSON      CLOUDY    79  67  66 NE12      29.79F
HETTINGER      SUNNY     86  66  51 SE14      29.76F
$$

 *****  OTHER OBSERVATIONS NORTHEAST NORTH DAKOTA  *****

CITY           SKY/WX    TMP DP  RH WIND       PRES   REMARKS
WALHALLA         N/A     73  68  83 E9          N/A
LANGDON        MOCLDY    75  63  64 SE14G20   29.89F
CAVALIER       MOCLDY    73  64  73 SE10      29.88F
GRAFTON        FAIR      77  63  61 SE14      29.89S
CANDO          FAIR      75  63  64 SE12G21   29.86S
FORT TOTTEN    NOT AVBL
ROLLA          FAIR      73  63  68 SE14G21   29.87S
RUGBY          FAIR      75  64  69 SE10G17   29.84R
 ***** THE ABOVE OBSERVATIONS ARE NON NWS ARE NOT QUALITY
        CONTROLLED AND MAY MIS-REPORT RAIN FOR SNOW...
$$

 *****  OTHER OBSERVATIONS SOUTHEAST NORTH DAKOTA *****

CITY           SKY/WX    TMP DP  RH WIND       PRES   REMARKS
COOPERSTOWN    NOT AVBL
VALLEY CITY    FAIR      75  63  64 S22G28    29.85F
OAKES          NOT AVBL
GWINNER        MOCLDY    75  64  69 S21G28    29.87S
SHEYENNE NWR     N/A     76  62  62 S18       29.95
BUFFALO        NOT AVBL
WYNDMERE       NOT AVBL
 ***** THE ABOVE OBSERVATIONS ARE NON NWS ARE NOT QUALITY
       CONTROLLED AND MAY MIS-REPORT RAIN FOR SNOW...
$$

  *****  WEATHER ACROSS NORTHERN MINNESOTA  *****

CITY           SKY/WX    TMP DP  RH WIND       PRES   REMARKS
FLAG ISLAND    PTSUNNY   72  55  56 SE5       29.93S
WARROAD        CLOUDY    72  63  73 NE9       29.94F
ROSEAU         LGT RAIN  73  64  73 S6        29.93S
HALLOCK        LGT RAIN  72  66  83 SE5       29.90S
THF RVR FALLS  PTSUNNY   75  61  60 SE10      29.92F
HALSTAD          N/A     75  57  54 S16         N/A
FOSSTON        CLOUDY    75  57  53 SE9       29.93R
BAUDETTE       PTSUNNY   73  58  59 E3        29.94F
WASKISH        CLOUDY    73  61  64 CALM      29.95R
CROOKSTON      MOSUNNY   77  61  57 S13       29.91R
$$
  *****  WEATHER ACROSS CENTRAL AND WEST MINNESOTA  *****

CITY           SKY/WX    TMP DP  RH WIND       PRES   REMARKS
BEMIDJI        CLOUDY    76  58  53 SE16G23   29.92F
PARK RAPIDS    CLOUDY    74  55  51 SE16      29.91F
WADENA         CLOUDY    72  57  60 E14       29.89R
DETROIT LAKES  CLOUDY    73  55  53 S15       29.93R
MOORHEAD       PTSUNNY   73  63  68 S7        29.89F
FERGUS FALLS   CLOUDY    73  59  60 SE13      29.90F
ELBOW LAKE     FAIR      72  62  72 S23G33    29.88R
MORRIS MN      CLOUDY    72  64  78 SE22G33   29.89F
STAPLES        CLOUDY    73  55  53 E9        29.89S
WHEATON        PTSUNNY   70  63  78 SE23G36   29.89F
$$
  *****  WEATHER ELSEWHERE ACROSS MINNESOTA  *****

CITY           SKY/WX    TMP DP  RH WIND       PRES   REMARKS
DULUTH         PTSUNNY   77  53  43 SW10      30.01F
INTRNTL FALLS  MOSUNNY   76  54  46 S6        29.95F
ELY            PTSUNNY   75  52  43 S5        29.98F
CLOQUET        PTSUNNY   73  52  46 S12       29.99F
BRAINERD       CLOUDY    72  56  57 SE8       29.93F
HIBBING        PTSUNNY   77  52  41 VRB3      29.98F
ALEXANDRIA     CLOUDY    65  60  84 SE21G33   29.83F
SAINT CLOUD    CLOUDY    77  55  46 S9        30.00F
MINNEAPOLIS    CLOUDY    80  55  42 SW10      30.06S
$$

  *****  WEATHER ACROSS SOUTH DAKOTA  *****

CITY           SKY/WX    TMP DP  RH WIND       PRES   REMARKS
SIOUX FALLS    PTSUNNY   69  60  73 NE25G35   30.07R THUNDER
BROOKINGS      NOT AVBL
WATERTOWN      PTSUNNY   70  62  76 SE21G32   29.90F
HURON          CLOUDY    73  63  70 SE20G33   29.86F
SISSETON         N/A     73  66  78 S17G31    29.86F
ABERDEEN       MOSUNNY   79  61  53 SE24G38   29.83F
MITCHELL       PTSUNNY   79  67  66 E18G29    29.88R
PIERRE         SUNNY     98  68  37 SE16G32   29.68F HX 103
MOBRIDGE       MOSUNNY   85  68  56 SE21G30   29.74F
RAPID CITY     MOSUNNY   92  67  43 VRB5      29.77F HX  95
$$

  *****  SOME WEATHER IN NEARBY STATES *****

CITY           SKY/WX    TMP DP  RH WIND       PRES   REMARKS
GLASGOW MT     SUNNY     91  57  31 S10G21    29.66F
GREAT FALLS MT FAIR      74  27  17 W31G43    29.93F
CHEYENNE WY    PTSUNNY   85  45  24 W30G39    30.15R
SCOTTSBLUFF NE MOSUNNY   99  50  19 NW7       29.88F HX  96
OMAHA NE       MOSUNNY   83  61  47 SE21      30.01S
DES MOINES IA  CLOUDY    77  58  51 SW9       30.11R
DAVENPORT IA   MOSUNNY   75  54  47 CALM      30.09F
CHICAGO IL     MOSUNNY   74  43  32 E9        30.10F
EAU CLAIRE WI  PTSUNNY   80  52  37 SW9       30.06R
LA CROSSE WI   MOSUNNY   81  55  40 W9        30.07R
$$

  *****  SOME NATIONAL WEATHER *****

CITY           SKY/WX    TMP DP  RH WIND       PRES   REMARKS
LA GUARDIA NY  MOSUNNY   80  53  39 N10       29.84S
RALEIGH NC     PTSUNNY   84  73  69 CALM      29.85F HX  90
ATLANTA GA     PTSUNNY   84  71  65 SW9       29.95F
NEW ORLEANS LA PTSUNNY   86  74  67 S3        29.96F HX  94
OKLAHOMA CITY  MOSUNNY   93  71  48 SE6       30.02F HX 100
ALBUQUERQUE NM MOSUNNY   90  38  16 VRB6      30.24F
SALT LAKE CITY FAIR      91  40  16 N13G20    30.02F
LOS ANGELES CA FAIR      79  61  53 W16       29.82F
BOISE ID       FAIR      71  32  23 VRB6      30.17F
SEATTLE WA     PTSUNNY   67  53  61 SW14G24   30.21R
$$

*** WEATHER ACROSS MANITOBA...SASKATCHEWAN AND ONTARIO ***
                ***ONTARIO***

CITY           SKY/WX    TMP DP  RH WIND       PRES   REMARKS
GERALDTON      PTSUNNY   75  52  43 W12       29.94F
THUNDER BAY    MOSUNNY   77  52  41 S10       29.96F
SIOUX LOOKOUT  PTSUNNY   75  50  41 VRB7      29.96F
TORONTO        MOSUNNY   75  48  38 N9        30.02F
BIG TROUT LK   PTSUNNY   75  54  46 NW8       29.81F
PICKLE LAKE    PTSUNNY   77  46  33 W7        29.91F
DRYDEN         SUNNY     75  48  38 SW9       29.97F
KENORA         PTSUNNY   73  54  49 SE10      29.95F
$$
                *** MANITOBA***

CITY           SKY/WX    TMP DP  RH WIND       PRES   REMARKS
BRANDON        PTSUNNY   72  63  73 SE12      29.87F
DAUPHIN        SUNNY     75  63  64 SE13G18   29.84F
ISLAND LAKE    MOSUNNY   81  54  39 W6        29.88F
PILOT MOUND      N/A     72  61  68 SE13        N/A
THE PAS        CLOUDY    77  55  47 SE15      29.82F
THOMPSON       MOSUNNY   82  52  34 W3        29.85F
WINNIPEG       CLOUDY    75  59  57 SE13      29.91F
LYNN LAKE      SUNNY     81  46  30 SE13      29.85
CHURCHILL      MOSUNNY   61  50  67 NE10      29.91F
GILLAM         CLOUDY    79  54  41 W2        29.84F
$$
                ***SASKATCHEWAN***

CITY           SKY/WX    TMP DP  RH WIND       PRES   REMARKS
ESTEVAN        MOSUNNY   81  66  61 SE12      29.75F
KINDERSLEY     LGT RAIN  61  54  77 W12       29.76S
LLOYDMINSTER   TSTM      70  50  49 SW23G30   29.68S
PRINCE ALBERT  PTSUNNY   70  63  78 SE7       29.74F
REGINA         PTSUNNY   81  63  54 SW8       29.73F



USA.gov is the U.S. government's official web portal to all federal, state and local government web resources and services.